Regional Weather Roundup
Issued by NWS

Home | Current Version | Previous Version | Graphics & Text | Print | Product List | Glossary On
Versions: 1 2 3 4 5 6 7 8 9 10 11 12 13 14 15 16 17 18 19 20 21 22 23 24 25 26 27
000
ASUS45 KCYS 220210
RWRWY

WYOMING REGIONAL WEATHER ROUNDUP
NATIONAL WEATHER SERVICE CHEYENNE WY
800 PM MDT WED JUN 21 2017

NOTE:  "FAIR" INDICATES FEW OR NO CLOUDS BELOW 12,000 FEET
WITH NO SIGNIFICANT WEATHER AND/OR OBSTRUCTIONS TO VISIBILITY.

WYZ001-220300-
YELLOWSTONE NATIONAL PARK

CITY           SKY/WX    TMP DP  RH WIND       PRES   REMARKS
LK YELLOWSTONE   N/A     67  40  37 VRB7      30.13S
W YELLOWSTONE  NOT AVBL

$$
WYZ002>013-054>058-071-098>099-220300-
NORTHERN WYOMING

CITY           SKY/WX    TMP DP  RH WIND       PRES   REMARKS
JACKSON        CLEAR     73  39  29 S9        30.04R
CODY           FAIR      76  46  34 N14       29.89R
GREYBULL       FAIR      85  46  25 NW20      29.75R
WORLAND        FAIR      89  46  22 N12       29.74R
SHERIDAN       FAIR      77  57  50 NW6       29.82R
BUFFALO        FAIR      74  53  48 N7        29.88R
GILLETTE       FAIR      79  51  37 NE9       29.80S
NEWCASTLE      FAIR      84  45  24 CALM      29.79F

$$
WYZ014>020-022>026-101>103-220300-
CENTRAL WYOMING

CITY           SKY/WX    TMP DP  RH WIND       PRES   REMARKS
BIG PINEY      FAIR      74  40  29 NW15      30.11S
PINEDALE       FAIR      70  37  30 W13       30.11S
DUBOIS         FAIR      72  34  25 NW20G36   30.03R
LANDER         FAIR      83  38  20 W10       29.93R
RIVERTON       FAIR      85  33  15 W18       29.89S
CASPER         FAIR      84  34  16 W16       29.86S
DOUGLAS        FAIR      80  57  45 S5        29.85S

$$
WYZ021-027>030-104>119-220300-
SOUTHERN WYOMING

CITY           SKY/WX    TMP DP  RH WIND       PRES   REMARKS
EVANSTON       FAIR      78  42  27 NW10      30.12F
KEMMERER         N/A     73  46  38 W8        30.14S
FORT BRIDGER   FAIR      81  41  24 NW15      30.14S
ROCK SPRINGS   FAIR      80  38  22 NW18G26   30.06R
DIXON          FAIR      80  35  20 SW6       30.09S
RAWLINS        FAIR      80  35  19 W20       30.04S
SARATOGA       FAIR      79  34  19 SW13      30.09S
LARAMIE        FAIR      73  37  27 SW18      30.09S
CHEYENNE       FAIR      80  38  22 W20G35    29.99R
TORRINGTON     FAIR      86  42  21 E6        29.78S
PINE BLUFFS    FAIR      81  45  28 SW8       29.90R

$$




USA.gov is the U.S. government's official web portal to all federal, state and local government web resources and services.